Wind_Speed
4 5 8 3 4 5 4 6 6 3 5 5 3 3 3 4 3 4 6 4 4 4 7 14 15 17 20 19 15 11 10 9 12 11 8 12 15 17 20 20 21 22 20 19
4 6 4 5 5 6 7 7 7 5 4 4 5 4 2 1 2 3 4 8 6 3 6 8 9 14 23 26 23 14 12 10 14 12 10 18 20 18 19 21 21 21 22 23
9 2 4 5 7 9 10 9 7 7 6 9 8 13 6 3 3 1 2 5 2 4 4 4 5 11 16 23 24 21 15 14 11 11 12 16 25 23 21 22 23 22 22 23
7 5 3 4 6 6 12 3 6 9 10 13 5 2 11 6 4 4 2 1 4 2 1 3 2 6 14 15 18 11 18 19 21 21 23 24 20 32 28 26 20 21 23 21
3 5 5 6 6 3 4 4 6 8 12 13 13 9 13 8 5 6 5 3 1 3 3 4 4 3 4 6 9 13 15 16 17 17 15 21 27 32 35 25 23 20 24 20
10 7 7 6 6 5 7 8 11 11 13 17 13 6 8 5 5 5 5 4 2 2 1 6 6 6 7 9 12 14 16 20 21 21 19 18 24 34 39 26 21 19 25 23
11 12 8 6 6 7 8 14 17 11 13 3 5 6 11 2 2 4 7 6 4 2 3 1 9 11 11 14 17 21 22 22 22 20 33 23 24 27 31 36 36 28 26 28
10 11 10 7 6 5 5 8 11 11 10 15 11 8 4 2 2 2 2 5 5 6 7 6 7 17 18 18 19 22 24 26 22 21 20 23 25 29 30 31 37 39 39 32
11 11 9 6 6 5 5 9 9 12 21 17 17 6 5 6 6 7 5 6 7 10 8 9 10 15 21 21 23 24 28 27 31 31 29 29 27 29 32 31 34 36 37 42
5 12 12 8 6 12 10 13 14 14 6 10 8 7 14 6 7 7 8 12 15 16 14 14 14 15 20 30 32 33 33 33 33 36 36 37 35 31 30 34 35 38 39 45
10 10 8 9 14 13 11 10 8 12 13 12 10 6 5 5 10 10 12 16 18 18 17 18 19 18 28 32 32 30 30 32 32 32 35 36 38 36 31 35 36 40 39 40
6 10 15 17 7 10 17 21 19 17 14 15 17 19 16 8 11 16 19 20 19 16 15 16 18 21 25 31 32 35 33 31 36 36 34 35 33 34 31 32 37 37 41 38
6 10 16 17 18 17 9 10 11 13 14 19 16 18 12 9 14 17 21 21 20 18 17 18 20 25 33 35 38 39 42 39 39 39 34 33 29 31 32 35 38 38 40 41
11 14 16 20 20 12 11 12 13 17 19 20 22 24 22 22 24 24 19 19 20 19 20 22 22 31 32 30 29 33 33 33 32 36 33 30 29 27 28 34 38 38 40 41
9 14 15 17 17 18 20 22 21 23 25 27 28 28 27 24 16 16 18 17 20 22 23 23 22 26 31 32 30 31 31 29 30 31 29 29 29 29 30 31 35 41 39 42
11 15 15 19 19 21 25 26 26 27 28 30 29 28 22 15 14 16 19 20 22 23 23 24 25 25 28 28 28 27 27 25 26 27 27 25 25 28 28 31 34 37 41 42
13 14 15 22 18 21 25 24 23 24 22 21 23 18 14 17 16 17 19 20 22 22 23 24 25 27 27 24 25 27 24 23 23 25 24 23 22 22 23 28 34 34 40 41
17 17 18 23 19 18 24 17 16 16 17 19 18 17 13 15 17 19 22 20 19 23 28 32 29 28 29 24 24 24 25 24 22 20 21 22 20 19 18 20 25 28 38 42
19 19 21 24 25 23 19 14 13 12 13 12 14 15 15 15 18 20 11 14 23 30 39 34 28 28 27 24 25 21 21 23 28 25 19 23 22 19 16 16 17 20 22 27
17 18 20 21 21 17 15 11 8 8 21 9 10 10 13 16 21 20 26 30 32 30 31 32 28 29 25 22 23 23 26 27 27 26 22 16 18 16 18 15 14 15 17 20
15 16 19 20 23 23 19 11 7 11 9 7 7 12 17 19 22 24 27 28 28 31 34 33 32 29 23 20 22 25 25 21 14 6 17 4 10 8 12 15 18 17 15 13
24 23 24 22 24 24 6 8 13 12 13 14 15 19 20 24 21 24 25 28 29 30 33 31 29 26 22 19 22 22 23 17 17 11 8 6 6 4 5 7 10 13 14 14
26 26 24 21 12 6 9 9 11 12 18 20 21 19 22 22 22 25 28 29 31 31 36 30 25 22 19 20 20 21 20 16 11 7 8 9 9 5 5 4 5 6 8 12
18 18 25 22 24 24 24 21 18 19 17 19 19 21 22 23 26 28 28 29 30 30 31 27 22 20 20 20 17 17 19 11 10 12 10 7 8 5 5 8 6 7 7 6
19 15 15 21 20 20 24 22 25 20 22 25 22 24 22 24 27 27 27 30 29 33 29 25 21 20 22 20 20 17 19 15 11 10 9 10 11 8 6 7 6 6 6 5
20 22 26 27 23 21 22 22 22 23 24 24 23 24 24 25 27 27 28 29 30 31 31 23 20 19 26 14 22 20 21 18 14 5 6 12 8 7 7 7 7 7 7 6
Wind_Direction
224 226 231 181 266 284 289 289 289 277 287 310 315 332 359 63 81 47 57 89 162 186 201 250 244 198 202 206 198 199 194 220 240 252 267 283 270 257 247 249 245 247 242 237
200 229 228 251 277 273 267 271 262 264 268 269 279 266 284 147 131 106 82 93 94 101 147 227 245 226 207 219 222 213 204 228 229 233 235 257 272 264 256 252 256 253 254 251
250 114 254 287 285 273 258 261 300 287 284 266 276 248 196 187 163 138 85 88 97 96 104 169 196 207 218 229 228 231 229 239 240 237 228 241 272 264 262 255 252 249 245 251
228 241 268 292 285 267 279 230 280 275 281 301 292 115 199 183 195 215 210 18 79 238 156 95 126 224 212 246 243 253 253 265 268 269 269 250 246 258 246 260 265 261 251 244
174 242 270 276 266 258 338 289 270 277 276 277 266 250 140 208 225 197 200 221 147 113 141 192 198 213 256 267 274 276 262 267 275 281 274 268 249 230 246 222 236 241 251 236
249 255 256 268 255 241 276 289 268 267 258 250 240 273 284 78 123 187 225 213 201 158 217 249 253 259 260 267 273 279 276 272 274 277 289 273 266 248 245 232 202 235 248 237
239 246 239 245 257 256 270 278 279 233 234 268 125 269 279 2 246 210 204 225 257 224 262 287 265 263 274 279 281 281 277 281 282 272 262 270 267 264 255 251 233 232 239 241
250 198 217 218 238 285 272 295 302 303 298 311 314 260 205 148 244 181 217 255 261 265 274 276 275 272 273 273 273 275 276 276 278 279 279 281 269 258 260 250 251 236 237 237
296 248 204 217 237 231 218 267 303 295 274 251 260 231 296 200 232 243 251 270 275 280 287 294 292 290 281 280 287 286 280 278 280 279 280 275 281 270 253 257 251 248 238 240
275 270 243 230 239 257 257 280 284 247 267 278 292 302 255 204 232 227 274 284 291 288 290 292 291 290 286 293 292 291 286 280 277 278 280 280 276 276 257 250 250 247 242 235
252 251 250 228 262 254 228 254 240 276 295 298 293 294 26 289 265 267 280 290 291 293 295 296 292 291 295 297 295 289 281 276 276 275 279 280 276 272 266 245 249 244 242 237
239 252 261 258 245 246 263 274 269 277 287 284 298 281 299 284 279 282 287 292 300 297 296 295 293 296 295 292 287 282 282 283 279 285 284 280 275 268 261 255 248 246 241 237
239 246 266 253 252 243 255 263 257 257 273 269 275 277 293 300 291 290 296 290 286 296 298 300 300 294 293 290 288 286 286 287 282 284 281 277 269 265 261 249 242 244 239 237
247 259 258 278 303 295 276 265 258 268 270 279 274 287 289 288 291 291 289 281 287 290 296 299 298 299 297 294 295 287 288 290 279 275 277 270 260 258 261 254 244 241 241 240
244 257 261 266 272 274 275 271 269 267 269 272 281 287 290 293 290 282 289 294 294 294 300 302 300 297 300 294 292 295 290 285 277 273 270 268 259 258 259 257 251 241 239 240
244 263 267 271 273 272 273 270 270 270 271 272 277 281 285 286 291 293 292 290 289 296 299 303 302 298 294 295 293 296 295 283 274 273 267 264 264 262 261 255 249 242 235 235
250 262 269 276 280 281 273 268 272 272 268 270 275 277 284 291 291 292 288 289 294 295 302 302 296 293 293 294 295 298 292 284 284 278 269 265 269 275 266 255 252 245 232 232
251 255 265 274 278 264 277 268 262 269 268 272 273 272 280 297 296 294 305 296 290 299 306 308 300 293 291 289 293 295 289 281 274 277 263 267 267 272 275 267 257 252 231 227
249 253 265 265 260 269 271 275 260 252 272 273 273 269 278 286 292 307 286 295 296 299 300 306 300 296 292 285 287 286 292 291 272 270 272 262 260 260 269 268 258 240 235 232
232 247 249 257 269 273 282 277 251 273 286 288 246 260 273 291 291 287 290 289 301 307 304 306 301 290 294 286 282 286 292 283 291 248 238 261 276 255 254 263 264 249 241 228
227 231 242 252 257 266 272 242 244 270 290 266 276 291 290 286 281 295 301 307 307 307 308 307 304 295 292 284 286 295 285 269 285 222 215 233 266 264 261 254 257 255 250 238
247 245 245 248 260 269 248 235 256 266 285 289 292 290 291 282 297 298 302 305 308 311 307 307 303 295 287 281 292 295 273 251 229 207 173 230 255 260 266 260 259 262 260 233
247 245 263 263 284 259 267 267 267 284 286 290 289 287 284 286 294 297 303 303 307 309 309 310 303 288 275 285 292 291 251 219 194 191 206 238 245 253 266 255 272 281 282 263
251 250 252 258 263 274 275 268 278 284 267 278 281 278 286 290 292 296 301 306 311 310 311 309 299 282 272 294 294 290 233 206 216 214 211 238 249 237 255 268 234 238 235 255
261 282 272 264 269 268 263 266 263 281 283 285 281 283 282 289 291 294 302 307 311 312 314 307 294 283 265 281 281 272 237 244 218 203 235 251 256 240 233 248 248 254 261 270
259 264 263 270 273 272 274 274 274 280 284 286 277 276 279 282 290 293 301 305 304 311 310 307 290 281 269 280 276 257 230 235 204 193 230 249 254 268 253 245 239 248 246 250
Height
3173 3175 3172 3171 3172 3172 3172 3171 3170 3169 3170 3170 3169 3169 3169 3169 3169 3169 3168 3168 3169 3170 3168 3165 3166 3167 3170 3171 3171 3173 3175 3177 3179 3181 3183 3185 3186 3186 3187 3188 3190 3191 3193 3193
3175 3172 3171 3172 3172 3172 3171 3170 3167 3168 3170 3170 3167 3168 3168 3169 3169 3169 3169 3168 3169 3168 3166 3164 3163 3166 3167 3168 3170 3172 3174 3174 3176 3179 3181 3182 3184 3184 3185 3185 3186 3188 3190 3191
3171 3171 3171 3171 3171 3171 3169 3168 3167 3168 3167 3166 3165 3162 3166 3167 3168 3169 3169 3166 3165 3165 3164 3164 3163 3164 3166 3165 3168 3170 3172 3173 3175 3176 3178 3180 3184 3183 3184 3183 3182 3184 3185 3187
3172 3170 3171 3170 3169 3169 3165 3167 3168 3168 3167 3160 3164 3158 3160 3164 3166 3168 3169 3169 3166 3165 3164 3164 3163 3164 3166 3165 3166 3170 3171 3171 3172 3173 3172 3175 3177 3179 3178 3179 3180 3182 3182 3182
3170 3170 3170 3169 3169 3169 3168 3168 3168 3167 3165 3163 3159 3160 3157 3161 3163 3165 3167 3169 3168 3166 3165 3164 3164 3164 3165 3165 3165 3166 3167 3166 3167 3167 3167 3167 3171 3171 3170 3173 3177 3173 3180 3177
3169 3168 3169 3168 3168 3168 3168 3167 3165 3163 3160 3154 3152 3156 3155 3157 3161 3164 3166 3168 3169 3167 3165 3164 3163 3163 3163 3163 3164 3164 3163 3163 3163 3163 3165 3164 3164 3164 3164 3170 3169 3170 3175 3173
3164 3166 3166 3167 3167 3167 3167 3163 3156 3150 3146 3144 3153 3157 3156 3158 3161 3163 3164 3167 3167 3167 3165 3164 3161 3161 3161 3161 3161 3160 3160 3159 3158 3158 3163 3159 3158 3157 3157 3159 3163 3166 3165 3166
3160 3160 3162 3165 3166 3164 3165 3165 3162 3156 3150 3148 3150 3153 3153 3156 3160 3161 3163 3165 3166 3165 3164 3161 3159 3157 3157 3157 3156 3156 3155 3154 3153 3151 3151 3151 3151 3150 3151 3152 3151 3158 3158 3158
3159 3159 3160 3162 3164 3166 3165 3164 3162 3161 3157 3151 3148 3148 3152 3153 3158 3160 3162 3163 3163 3161 3160 3157 3155 3151 3150 3150 3149 3149 3148 3148 3146 3145 3143 3144 3142 3142 3142 3143 3145 3147 3152 3153
3160 3160 3158 3159 3162 3163 3163 3163 3162 3155 3152 3148 3143 3147 3148 3151 3155 3158 3159 3160 3158 3156 3154 3152 3150 3148 3143 3142 3142 3141 3140 3140 3139 3136 3135 3133 3134 3134 3133 3135 3135 3137 3141 3143
3159 3160 3158 3158 3158 3158 3158 3158 3158 3157 3156 3150 3148 3146 3149 3152 3154 3155 3156 3156 3153 3151 3148 3146 3143 3141 3136 3135 3134 3133 3132 3131 3130 3128 3126 3125 3123 3123 3124 3124 3126 3128 3131 3133
3157 3156 3154 3154 3153 3155 3157 3157 3156 3153 3153 3150 3149 3148 3147 3148 3151 3152 3152 3150 3147 3144 3142 3140 3137 3133 3131 3128 3126 3124 3123 3122 3119 3118 3117 3116 3114 3113 3113 3115 3117 3120 3122 3124
3156 3155 3151 3149 3150 3149 3153 3153 3153 3153 3154 3153 3151 3147 3146 3146 3147 3147 3145 3144 3141 3139 3136 3134 3131 3127 3125 3123 3119 3116 3112 3111 3109 3106 3107 3106 3105 3104 3103 3104 3107 3110 3112 3114
3154 3153 3153 3149 3145 3149 3149 3150 3150 3151 3149 3145 3143 3142 3144 3143 3142 3141 3140 3139 3136 3134 3131 3128 3125 3119 3116 3113 3109 3105 3103 3100 3098 3096 3096 3095 3095 3095 3094 3094 3096 3099 3103 3106
3152 3150 3150 3148 3148 3147 3146 3146 3146 3145 3144 3143 3140 3139 3140 3138 3135 3135 3134 3133 3131 3129 3125 3121 3118 3113 3108 3104 3101 3097 3094 3092 3089 3088 3087 3085 3085 3086 3086 3086 3086 3088 3092 3096
3148 3147 3147 3145 3145 3144 3142 3141 3140 3140 3138 3137 3136 3135 3135 3131 3132 3132 3131 3128 3125 3122 3119 3115 3111 3107 3101 3096 3093 3090 3087 3084 3081 3079 3078 3078 3077 3077 3076 3076 3076 3078 3082 3087
3145 3144 3144 3140 3140 3138 3135 3134 3134 3132 3131 3132 3130 3131 3129 3128 3127 3126 3124 3121 3118 3115 3111 3107 3103 3099 3094 3090 3087 3084 3080 3077 3076 3073 3071 3070 3070 3068 3067 3066 3065 3067 3071 3077
3141 3141 3142 3138 3138 3132 3128 3127 3128 3128 3128 3127 3126 3127 3125 3124 3124 3122 3118 3115 3113 3110 3104 3099 3095 3090 3086 3083 3081 3078 3074 3071 3069 3067 3065 3064 3063 3061 3060 3057 3056 3057 3061 3066
3136 3137 3136 3133 3130 3126 3125 3123 3123 3123 3124 3124 3122 3121 3122 3122 3120 3119 3113 3109 3106 3102 3097 3091 3088 3083 3079 3076 3074 3072 3069 3065 3063 3062 3059 3059 3058 3056 3055 3053 3053 3052 3054 3057
3131 3132 3133 3130 3125 3120 3121 3118 3118 3121 3120 3118 3117 3118 3118 3117 3115 3113 3107 3103 3100 3095 3089 3084 3080 3076 3072 3069 3067 3065 3062 3058 3053 3052 3054 3054 3053 3051 3050 3050 3049 3050 3050 3051
3125 3126 3126 3124 3121 3119 3118 3115 3115 3121 3120 3114 3113 3115 3113 3112 3110 3106 3103 3099 3094 3087 3081 3075 3071 3067 3065 3063 3061 3059 3054 3051 3048 3046 3049 3049 3049 3047 3046 3047 3046 3048 3047 3047
3118 3118 3116 3115 3114 3112 3110 3112 3115 3114 3110 3111 3110 3110 3107 3104 3102 3102 3098 3093 3088 3081 3074 3069 3065 3061 3059 3058 3056 3052 3049 3046 3043 3044 3047 3047 3047 3046 3046 3044 3044 3044 3043 3043
3112 3113 3112 3113 3111 3109 3109 3108 3108 3107 3107 3107 3106 3105 3101 3099 3098 3096 3092 3087 3081 3074 3066 3062 3058 3055 3054 3053 3050 3046 3045 3043 3039 3043 3045 3046 3046 3044 3044 3044 3043 3043 3042 3041
3107 3107 3106 3107 3106 3105 3106 3106 3103 3103 3099 3100 3100 3098 3096 3094 3093 3090 3086 3080 3074 3066 3060 3056 3053 3050 3049 3048 3045 3042 3040 3039 3039 3040 3041 3043 3044 3043 3042 3043 3042 3041 3041 3040
3103 3102 3102 3101 3101 3101 3101 3100 3096 3095 3095 3094 3093 3090 3089 3088 3086 3083 3079 3073 3068 3059 3055 3051 3048 3045 3044 3042 3040 3038 3037 3036 3035 3038 3041 3041 3043 3042 3041 3042 3041 3040 3040 3040
3099 3098 3097 3095 3096 3094 3093 3090 3090 3090 3088 3088 3087 3084 3084 3082 3079 3076 3072 3068 3061 3053 3049 3046 3042 3039 3035 3032 3034 3033 3031 3032 3033 3035 3038 3040 3040 3041 3040 3039 3040 3040 3040 3039